When you browse on this site, cookies collect data to enhance your experience and personalize the content and advertising you see.
Visit our Privacy Policy to learn more. By continuing to use the site, you agree to this use of cookies and data.
  • In Portugal
  • List of Countries
  • For 7 days
  • Water Temperature
  • Satellite Maps
  • Weather Map
  • Weather Widgets
  • user-avatar
    Login

    Hourly Weather Wiktoria

    Today, 18 January, Friday

    Time Temperature Precipitation Wind Pressure Humidity
    00:00 +30°C° 0 mm 5 mps 745 mmHg 45%
    01:00 +30°C° 0 mm 5 mps 745 mmHg 47%
    02:00 +29°C° 0.4 mm 5 mps 745 mmHg 51%
    03:00 +28°C° 0.4 mm 5 mps 744 mmHg 56%
    04:00 +28°C° 0 mm 5 mps 744 mmHg 54%
    05:00 +28°C° 0.1 mm 5 mps 744 mmHg 53%
    06:00 +29°C° 0.1 mm 5 mps 744 mmHg 53%
    07:00 +29°C° 0.1 mm 4 mps 744 mmHg 52%
    08:00 +30°C° 0 mm 5 mps 744 mmHg 47%
    09:00 +33°C° 0 mm 6 mps 744 mmHg 41%
    10:00 +34°C° 0 mm 5 mps 745 mmHg 44%
    11:00 +36°C° 0 mm 4 mps 744 mmHg 38%
    12:00 +38°C° 0 mm 3 mps 744 mmHg 33%
    13:00 +40°C° 0 mm 2 mps 744 mmHg 27%
    14:00 +41°C° 0 mm 4 mps 744 mmHg 25%
    15:00 +41°C° 0 mm 6 mps 744 mmHg 24%
    16:00 +41°C° 0 mm 8 mps 744 mmHg 23%
    17:00 +39°C° 0 mm 7 mps 745 mmHg 26%
    18:00 +38°C° 0 mm 6 mps 745 mmHg 29%
    19:00 +35°C° 0 mm 5 mps 746 mmHg 32%
    20:00 +33°C° 0 mm 6 mps 746 mmHg 41%
    21:00 +30°C° 0 mm 6 mps 747 mmHg 50%
    22:00 +27°C° 0 mm 6 mps 748 mmHg 58%
    23:00 +26°C° 0 mm 7 mps 748 mmHg 58%

    Tomorrow, 19 January, Saturday

    Time Temperature Precipitation Wind Pressure Humidity
    00:00 +23°C° 0 mm 7 mps 749 mmHg 58%
    01:00 +22°C° 0 mm 7 mps 749 mmHg 58%
    02:00 +20°C° 0 mm 7 mps 749 mmHg 61%
    03:00 +19°C° 0 mm 6 mps 749 mmHg 64%
    04:00 +17°C° 0 mm 6 mps 750 mmHg 67%
    05:00 +19°C° 0 mm 6 mps 750 mmHg 66%
    06:00 +19°C° 0 mm 6 mps 751 mmHg 65%
    07:00 +19°C° 0 mm 6 mps 751 mmHg 64%
    08:00 +21°C° 0 mm 6 mps 751 mmHg 55%
    09:00 +23°C° 0 mm 6 mps 752 mmHg 45%
    10:00 +26°C° 0 mm 6 mps 752 mmHg 36%
    11:00 +28°C° 0 mm 6 mps 751 mmHg 31%
    12:00 +30°C° 0 mm 6 mps 751 mmHg 26%
    13:00 +33°C° 0 mm 6 mps 751 mmHg 21%
    14:00 +33°C° 0 mm 6 mps 751 mmHg 22%
    15:00 +34°C° 0 mm 7 mps 750 mmHg 22%
    16:00 +34°C° 0 mm 7 mps 750 mmHg 22%
    17:00 +32°C° 0 mm 7 mps 750 mmHg 25%
    18:00 +29°C° 0 mm 7 mps 750 mmHg 28%
    19:00 +28°C° 0 mm 7 mps 750 mmHg 32%
    20:00 +26°C° 0 mm 7 mps 751 mmHg 35%
    21:00 +23°C° 0 mm 7 mps 752 mmHg 39%
    22:00 +21°C° 0 mm 7 mps 752 mmHg 43%
    23:00 +20°C° 0 mm 7 mps 752 mmHg 46%

    Day after tomorrow, 20 January, Sunday

    Time Temperature Precipitation Wind Pressure Humidity
    00:00 +20°C° 0 mm 6 mps 752 mmHg 49%
    01:00 +19°C° 0 mm 6 mps 752 mmHg 53%
    02:00 +17°C° 0 mm 5 mps 752 mmHg 55%
    03:00 +17°C° 0 mm 5 mps 752 mmHg 58%
    04:00 +16°C° 0 mm 5 mps 752 mmHg 61%
    05:00 +18°C° 0 mm 4 mps 752 mmHg 59%
    06:00 +19°C° 0 mm 4 mps 753 mmHg 58%
    07:00 +20°C° 0 mm 4 mps 753 mmHg 56%
    08:00 +24°C° 0 mm 3 mps 753 mmHg 50%
    09:00 +27°C° 0 mm 3 mps 753 mmHg 44%
    10:00 +30°C° 0 mm 2 mps 752 mmHg 38%
    11:00 +32°C° 0 mm 2 mps 752 mmHg 33%
    12:00 +35°C° 0 mm 2 mps 751 mmHg 28%
    13:00 +36°C° 0 mm 1 mps 751 mmHg 23%
    14:00 +38°C° 0 mm 2 mps 750 mmHg 22%
    15:00 +38°C° 0 mm 3 mps 750 mmHg 21%
    16:00 +40°C° 0 mm 4 mps 749 mmHg 20%
    17:00 +37°C° 0 mm 5 mps 749 mmHg 26%
    18:00 +35°C° 0 mm 6 mps 749 mmHg 32%
    19:00 +33°C° 0 mm 7 mps 749 mmHg 38%
    20:00 +30°C° 0 mm 7 mps 750 mmHg 44%
    21:00 +28°C° 0 mm 7 mps 750 mmHg 49%
    22:00 +26°C° 0 mm 6 mps 751 mmHg 55%
    23:00 +24°C° 0 mm 6 mps 751 mmHg 59%

    21 January, Monday

    Time Temperature Precipitation Wind Pressure Humidity
    00:00 +23°C° 0 mm 5 mps 750 mmHg 63%
    01:00 +22°C° 0 mm 5 mps 750 mmHg 67%
    02:00 +21°C° 0 mm 4 mps 750 mmHg 69%
    03:00 +21°C° 0 mm 3 mps 750 mmHg 70%
    04:00 +20°C° 0 mm 3 mps 750 mmHg 72%
    05:00 +21°C° 0 mm 3 mps 750 mmHg 66%
    06:00 +22°C° 0 mm 3 mps 750 mmHg 60%
    07:00 +24°C° 0 mm 3 mps 750 mmHg 55%
    08:00 +27°C° 0 mm 3 mps 750 mmHg 49%
    09:00 +30°C° 0 mm 3 mps 750 mmHg 44%
    10:00 +34°C° 0 mm 3 mps 750 mmHg 39%
    11:00 +36°C° 0 mm 3 mps 749 mmHg 34%
    12:00 +38°C° 0 mm 2 mps 748 mmHg 29%
    13:00 +40°C° 0 mm 2 mps 748 mmHg 25%
    14:00 +41°C° 0 mm 2 mps 747 mmHg 23%
    15:00 +41°C° 0 mm 1 mps 746 mmHg 21%
    16:00 +42°C° 0 mm 1 mps 746 mmHg 19%
    17:00 +42°C° 0 mm 3 mps 746 mmHg 21%
    18:00 +40°C° 0 mm 4 mps 746 mmHg 23%
    19:00 +39°C° 0 mm 5 mps 746 mmHg 25%
    20:00 +35°C° 0 mm 5 mps 747 mmHg 32%
    21:00 +33°C° 0 mm 6 mps 747 mmHg 38%
    22:00 +30°C° 0 mm 6 mps 748 mmHg 45%
    23:00 +28°C° 0 mm 5 mps 748 mmHg 49%

    22 January, Tuesday

    Time Temperature Precipitation Wind Pressure Humidity
    00:00 +27°C° 0 mm 5 mps 748 mmHg 53%
    01:00 +26°C° 0 mm 4 mps 748 mmHg 56%
    02:00 +25°C° 0 mm 4 mps 747 mmHg 59%
    03:00 +25°C° 0 mm 3 mps 747 mmHg 61%
    04:00 +24°C° 0 mm 3 mps 747 mmHg 63%
    05:00 +25°C° 0 mm 3 mps 747 mmHg 61%
    06:00 +26°C° 0 mm 3 mps 748 mmHg 59%
    07:00 +27°C° 0 mm 2 mps 748 mmHg 57%
    08:00 +30°C° 0 mm 2 mps 748 mmHg 49%
    09:00 +33°C° 0 mm 1 mps 748 mmHg 42%
    10:00 +36°C° 0 mm 1 mps 748 mmHg 34%
    11:00 +38°C° 0 mm 2 mps 747 mmHg 28%
    12:00 +40°C° 0 mm 3 mps 747 mmHg 22%
    13:00 +43°C° 0 mm 4 mps 746 mmHg 16%
    14:00 +43°C° 0 mm 4 mps 746 mmHg 16%
    15:00 +44°C° 0 mm 4 mps 745 mmHg 15%
    16:00 +45°C° 0 mm 5 mps 745 mmHg 15%
    17:00 +43°C° 0 mm 4 mps 745 mmHg 17%
    18:00 +41°C° 0 mm 4 mps 745 mmHg 18%
    19:00 +40°C° 0 mm 4 mps 745 mmHg 20%
    20:00 +37°C° 0 mm 5 mps 745 mmHg 22%
    21:00 +34°C° 0 mm 5 mps 746 mmHg 24%
    22:00 +32°C° 0 mm 5 mps 746 mmHg 26%
    23:00 +30°C° 0 mm 5 mps 746 mmHg 29%

    23 January, Wednesday

    Time Temperature Precipitation Wind Pressure Humidity
    00:00 +28°C° 0 mm 6 mps 746 mmHg 32%
    01:00 +27°C° 0 mm 7 mps 746 mmHg 35%
    02:00 +26°C° 0 mm 6 mps 746 mmHg 37%
    03:00 +25°C° 0 mm 5 mps 746 mmHg 40%
    04:00 +23°C° 0 mm 4 mps 746 mmHg 42%
    05:00 +23°C° 0 mm 5 mps 747 mmHg 43%
    06:00 +23°C° 0 mm 5 mps 747 mmHg 44%
    07:00 +23°C° 0 mm 5 mps 748 mmHg 45%
    08:00 +27°C° 0 mm 5 mps 747 mmHg 39%
    09:00 +30°C° 0 mm 5 mps 747 mmHg 32%
    10:00 +34°C° 0 mm 5 mps 747 mmHg 26%
    11:00 +36°C° 0 mm 5 mps 747 mmHg 22%
    12:00 +39°C° 0 mm 5 mps 746 mmHg 18%
    13:00 +42°C° 0 mm 5 mps 746 mmHg 13%
    14:00 +41°C° 0 mm 6 mps 746 mmHg 17%
    15:00 +40°C° 0 mm 7 mps 745 mmHg 20%
    16:00 +39°C° 0 mm 8 mps 745 mmHg 23%
    17:00 +35°C° 0 mm 8 mps 745 mmHg 29%
    18:00 +33°C° 0 mm 8 mps 746 mmHg 35%
    19:00 +29°C° 0 mm 8 mps 746 mmHg 42%
    20:00 +27°C° 0 mm 7 mps 747 mmHg 47%
    21:00 +26°C° 0 mm 7 mps 747 mmHg 52%
    22:00 +23°C° 0 mm 7 mps 748 mmHg 57%
    23:00 +22°C° 0 mm 5 mps 748 mmHg 60%
    Show more